Weather observations for the past three days for
Burlington/Mount Vernon, Skagit Regional Airport
Metric (Imperial)
Date Time (pdt) Wind (kph) Vis. (km) Weather Sky Cond. Temperature (ºC) Relative Humidity Wind Chill (°C) Heat Index (°C) Pressure Precipitation (cm)
Air Dwpt 6 hour altimeter (cm) sea level (mb) 1 hr 3 hr 6 hr
Max. Min.
09 06:15 Calm 16.09 Overcast OVC060 11 10 94% 76.73 0.0
09 05:55 Calm 16.09 Overcast OVC055 11 10 94% 76.73 0.0
09 05:35 Calm 16.09 Overcast OVC055 11 10 94% 76.73 0.0
09 05:15 Calm 16.09 Overcast OVC050 11 10 94% 76.73 0.0
09 04:55 Calm 16.09 Overcast OVC050 11 10 94% 76.73 0.0
09 04:35 Calm 16.09 Overcast OVC050 11 10 94% 76.73 0.0
09 04:15 Calm 16.09 Overcast FEW043 OVC050 11 10 94% 76.73 0.0
09 03:55 Calm 16.09 Overcast OVC049 11 10 94% 76.73 0.0
09 03:35 Calm 16.09 Overcast OVC049 11 10 94% 76.73 0.0
09 03:15 Calm 16.09 Overcast OVC050 11 10 94% 76.73 0.0
09 02:55 Calm 16.09 Overcast OVC050 11 9 88% 76.73 0.0
09 02:35 Calm 16.09 Overcast OVC050 11 9 88% 76.73 0.0
09 02:15 Calm 16.09 Overcast OVC050 11 10 94% 76.73 0.0
09 01:55 Calm 16.09 Overcast BKN045 OVC055 11 10 94% 76.73 0.0
09 01:35 Calm 16.09 Overcast OVC044 10 10 100% 76.73 0.0
09 00:55 Calm 16.09 Overcast OVC042 11 10 94% 76.73 0.0
09 00:35 Calm 16.09 Overcast OVC041 11 10 94% 76.73 0.0
09 00:15 Calm 16.09 Overcast OVC042 12 9 82% 76.71 0.0
08 23:55 Calm 16.09 Overcast OVC042 11 11 100% 76.71 0.0
08 23:35 Calm 16.09 Overcast OVC041 11 10 94% 76.73 0.0
08 23:15 Calm 16.09 Overcast OVC041 11 10 94% 76.73 0.0
08 22:55 Calm 16.09 Overcast OVC043 12 10 88% 76.73 0.0
08 22:35 Calm 16.09 Overcast OVC045 12 9 82% 76.71 0.0
08 22:15 Calm 16.09 Overcast OVC045 12 9 82% 76.71 0.0
08 21:55 Calm 16.09 Overcast OVC045 12 10 88% 76.71 0.0
08 21:35 Calm 16.09 Overcast OVC046 12 10 88% 76.71 0.0
08 21:15 Calm 16.09 Overcast OVC048 13 10 82% 76.71 0.0
08 20:55 Calm 16.09 Overcast OVC048 12 10 88% 76.68 0.0
08 20:35 Calm 16.09 Overcast OVC048 13 9 77% 76.68 0.0
08 20:15 Calm 16.09 Overcast OVC048 13 10 82% 76.66 0.0
08 19:55 Calm 16.09 Overcast OVC049 13 9 77% 76.66 0.0
08 19:35 Calm 16.09 Overcast BKN050 OVC055 13 9 77% 76.66 0.0
08 19:15 Calm 16.09 Overcast OVC055 13 8 72% 76.66 0.0
08 18:55 Calm 16.09 Overcast OVC060 14 8 67% 76.66 0.0
08 18:35 Calm 16.09 Overcast OVC065 0 0 0% 0 0.0
08 18:15 Calm 16.09 Overcast OVC070 14 8 67% 76.66 0.0
08 17:35 Calm 16.09 Overcast OVC080 14 8 67% 76.66 0.0
08 17:15 Vrbl 6 16.09 Overcast OVC085 14 8 67% 76.66 0.0
08 16:55 W 7 16.09 Overcast OVC100 14 7 63% 76.66 0.0
08 16:35 Vrbl 9 16.09 Overcast OVC100 14 7 63% 76.63 0.0
08 16:15 Calm 16.09 Mostly Cloudy BKN100 15 7 59% 76.63 0.0
08 15:55 SW 15 G 31 16.09 Mostly Cloudy BKN100 15 7 59% 76.63 0.0
08 15:15 SW 13 G 26 16.09 Partly Cloudy SCT110 16 8 59% 76.61 0.0
08 14:55 SW 7 G 26 16.09 Mostly Cloudy BKN110 15 8 63% 76.61 0.0
08 14:35 SW 13 G 30 16.09 Mostly Cloudy FEW030 BKN120 15 8 63% 76.61 0.0
08 14:15 SW 15 G 30 16.09 Partly Cloudy FEW042 SCT110 15 9 68% 76.61 0.0
08 13:55 SW 19 G 31 16.09 Partly Cloudy FEW033 BKN042 SCT120 15 9 68% 76.61 0.0
08 13:35 SW 20 G 31 16.09 Mostly Cloudy SCT033 BKN041 15 8 63% 76.58 0.0
08 13:15 Calm 16.09 Mostly Cloudy SCT034 BKN040 15 8 63% 76.58 0.0
08 12:55 S 15 G 31 16.09 A Few Clouds FEW031 FEW040 14 8 67% 76.56 0.0
08 12:35 S 15 16.09 Partly Cloudy FEW026 SCT031 SCT040 14 9 72% 76.56 0.0
08 12:15 SW 17 16.09 Overcast BKN026 BKN032 OVC040 13 9 77% 76.56 0.0
08 11:55 SW 19 16.09 Mostly Cloudy FEW024 SCT028 BKN037 13 10 82% 76.56 0.0
08 11:35 SW 9 16.09 Overcast FEW018 OVC030 12 11 94% 76.56 0.0
08 11:15 SW 11 16.09 Overcast BKN017 BKN028 OVC033 11 10 94% 76.56 0.0
08 10:55 S 11 G 22 4.02 Fog/Mist OVC015 11 10 94% 76.53 0.0
08 10:35 S 11 16.09 Overcast OVC016 11 10 94% 76.5 0.0
08 10:15 S 9 16.09 Overcast OVC018 11 10 94% 76.48 0.0
08 09:55 S 9 16.09 Overcast OVC019 12 10 88% 76.45 0.0
08 09:35 Vrbl 9 16.09 Overcast OVC019 11 10 94% 76.45 0.0
08 09:15 Calm 16.09 Overcast OVC021 11 10 94% 76.45 0.0
08 08:55 S 7 16.09 Overcast OVC021 11 10 94% 76.45 0.0
08 08:35 S 9 16.09 Overcast OVC022 11 10 94% 76.43 0.0
08 08:15 S 7 16.09 Overcast OVC021 11 10 94% 76.43 0.0
08 07:55 S 7 16.09 Overcast OVC021 11 10 94% 76.4 0.0
08 07:35 S 7 16.09 Overcast OVC021 10 10 100% 9 76.38 0.0
08 07:15 S 6 16.09 Overcast BKN021 OVC050 10 10 100% 76.38 0.0
08 06:55 S 7 16.09 Mostly Cloudy FEW022 BKN050 9 9 100% 8 76.35 0.0
08 06:15 Calm 16.09 A Few Clouds FEW050 8 8 100% 76.33 0.0
08 05:35 Calm 16.09 Mostly Cloudy BKN050 9 9 100% 76.3 0.0
08 05:15 Calm 16.09 Overcast OVC050 9 9 100% 76.3 0.0
08 04:55 Calm 16.09 Mostly Cloudy BKN049 9 9 100% 76.28 0.0
08 04:35 Calm 16.09 Mostly Cloudy SCT044 BKN050 9 9 100% 76.28 0.0
08 04:15 Calm 16.09 Overcast OVC046 9 9 100% 76.25 0.0
08 03:55 Calm 16.09 Overcast OVC045 9 9 100% 76.25 0.0
08 03:35 Calm 16.09 Overcast OVC043 9 9 100% 76.25 0.0
08 03:15 Calm 16.09 Overcast OVC043 9 9 100% 76.25 0.0
08 02:55 Calm 16.09 Overcast OVC042 9 9 100% 76.25 0.0
08 02:35 Calm 16.09 Mostly Cloudy BKN040 9 9 100% 76.25 0.0
08 02:15 Calm 16.09 Fair CLR 9 9 100% 76.23 0.0
08 01:55 Calm 16.09 Fair CLR 9 9 100% 76.25 0.0
08 01:35 Calm 16.09 Fair CLR 9 9 100% 76.25 0.0
08 01:15 Calm 16.09 Fair CLR 8 8 100% 76.25 0.0
08 00:35 Calm 16.09 Fair CLR 9 9 100% 76.28 0.0
08 00:15 Calm 16.09 Fair CLR 9 9 100% 76.28 0.0
07 23:55 Calm 16.09 Fair CLR 8 8 100% 76.28 0.0
07 23:35 Calm 16.09 Fair CLR 8 8 100% 76.28 0.0
07 23:15 Calm 16.09 Fair CLR 8 8 100% 76.28 0.0
07 22:55 Calm 16.09 Fair CLR 9 9 100% 76.28 0.0
07 22:35 Calm 16.09 Fair CLR 9 9 100% 76.28 0.0
07 22:15 Calm 16.09 Fair CLR 9 9 100% 76.28 0.0
07 21:55 Calm 16.09 Fair CLR 9 9 100% 76.28 0.0
07 21:35 Calm 16.09 A Few Clouds FEW045 11 9 88% 76.3 0.0
07 21:15 Calm 16.09 Fair CLR 12 10 88% 76.3 0.0
07 20:55 Calm 16.09 Fair CLR 12 10 88% 76.28 0.0
07 20:35 Calm 16.09 Fair CLR 14 9 72% 76.28 0.0
07 19:55 Calm 16.09 A Few Clouds FEW050 15 10 72% 76.28 0.0
07 19:35 Calm 16.09 Overcast SCT034 OVC050 16 9 63% 76.3 0.0
07 19:15 SW 9 16.09 Partly Cloudy SCT034 16 10 68% 76.3 0.0
07 18:55 SW 7 16.09 Fair CLR 17 10 64% 76.3 0.0
07 18:35 Calm 16.09 Fair CLR 16 11 72% 76.3 0.0
07 18:15 Vrbl 11 16.09 A Few Clouds FEW034 16 11 72% 76.33 0.0
07 17:55 Calm 16.09 Partly Cloudy FEW034 SCT050 16 10 68% 76.35 0.0
07 17:35 Calm 16.09 Mostly Cloudy BKN033 BKN050 16 11 72% 76.35 0.0
07 17:15 Vrbl 7 16.09 Mostly Cloudy BKN033 BKN050 17 10 64% 76.33 0.0
07 16:55 S 9 16.09 Overcast SCT033 OVC050 17 10 64% 76.33 0.0
07 16:35 Vrbl 9 16.09 Overcast FEW032 OVC050 17 10 64% 76.35 0.0
07 16:15 S 7 16.09 Mostly Cloudy BKN030 BKN050 17 11 68% 76.35 0.0
07 15:55 Calm 16.09 Overcast OVC029 16 10 68% 76.38 0.0
07 15:35 Calm 16.09 Overcast OVC027 16 11 72% 76.4 0.0
07 15:15 Calm 16.09 Overcast OVC026 15 10 72% 76.4 0.0
07 14:55 SW 6 16.09 Overcast OVC026 15 11 77% 76.43 0.0
07 14:35 Calm 16.09 Overcast OVC027 15 10 72% 76.45 0.0
07 14:15 Calm 16.09 Overcast OVC027 15 10 72% 76.45 0.0
07 13:55 Calm 16.09 Overcast OVC028 15 10 72% 76.48 0.0
07 13:35 Calm 16.09 Overcast BKN027 OVC032 15 10 72% 76.48 0.0
07 13:15 NW 7 16.09 Overcast SCT027 OVC033 15 10 72% 76.5 0.0
07 12:35 NW 7 16.09 Overcast OVC025 14 10 77% 76.5 0.0
07 12:15 N 9 16.09 Overcast BKN025 OVC043 15 10 72% 76.53 0.0
07 11:55 Calm 16.09 Mostly Cloudy BKN042 15 10 72% 76.53 0.0
07 11:35 W 11 16.09 Overcast FEW022 OVC041 15 11 77% 76.53 0.0
07 11:15 W 6 16.09 Overcast BKN022 OVC041 14 10 77% 76.56 0.0
07 10:55 Calm 16.09 Overcast OVC023 13 10 82% 76.56 0.0
07 10:15 Calm 16.09 Overcast OVC021 13 10 82% 76.56 0.0
07 09:55 SW 7 16.09 Overcast OVC023 13 10 82% 76.56 0.0
07 09:35 Calm 16.09 Overcast OVC023 13 10 82% 76.56 0.0
07 08:55 Calm 16.09 Overcast BKN026 OVC060 12 10 88% 76.56 0.0
07 08:35 Calm 16.09 Overcast OVC025 11 10 94% 76.58 0.0
07 08:15 Calm 16.09 Overcast OVC026 11 10 94% 76.58 0.0
07 07:55 Calm 16.09 Overcast OVC026 11 10 94% 76.58 0.0
07 07:35 Calm 16.09 Overcast OVC026 11 9 88% 76.58 0.0
07 07:15 Calm 16.09 Overcast OVC025 11 10 94% 76.58 0.0
07 06:55 SW 6 16.09 Overcast OVC023 11 10 94% 76.56 0.0
07 06:35 Calm 16.09 Overcast OVC023 10 10 100% 76.56 0.0
07 06:15 Calm 16.09 Overcast OVC023 10 10 100% 76.56 0.0
07 05:55 Calm 16.09 Overcast OVC020 10 10 100% 76.56 0.0
07 05:35 Calm 16.09 Overcast OVC020 10 9 94% 76.58 0.0
07 05:15 Calm 16.09 Overcast OVC021 10 10 100% 76.58 0.0
07 04:55 Calm 16.09 Overcast OVC022 10 10 100% 76.61 0.0
07 04:35 Calm 16.09 Overcast OVC023 10 10 100% 76.58 0.0
07 03:55 S 6 16.09 Overcast OVC023 10 10 100% 76.58 0.0
07 03:35 Calm 16.09 Overcast OVC023 11 10 94% 76.61 0.0
07 03:15 Calm 16.09 Overcast OVC023 11 10 94% 76.61 0.0
07 02:55 Calm 16.09 Overcast OVC023 11 10 94% 76.61 0.0
07 02:35 Calm 16.09 Overcast OVC023 11 10 94% 76.61 0.0
07 02:15 Calm 16.09 Overcast OVC023 11 10 94% 76.61 0.0
07 01:55 Calm 16.09 Overcast OVC023 11 10 94% 76.61 0.0
07 01:35 Calm 16.09 Overcast OVC023 11 10 94% 76.61 0.0
07 01:15 Calm 16.09 Overcast OVC023 11 10 94% 76.61 0.0
07 00:55 Calm 16.09 Overcast SCT024 BKN036 OVC070 11 10 94% 76.58 0.0
07 00:35 SW 7 16.09 Overcast SCT037 BKN046 OVC070 11 10 94% 76.58 0.0
07 00:15 SW 9 16.09 Overcast SCT025 OVC037 12 10 88% 76.58 0.0
06 23:55 SW 7 16.09 Overcast BKN026 OVC035 12 10 88% 76.58 0.0
06 23:35 Calm 16.09 Overcast BKN032 OVC037 12 10 88% 76.58 0.0
06 23:15 Calm 16.09 Overcast OVC029 12 10 88% 76.56 0.0
06 22:55 SW 9 16.09 Overcast OVC028 12 10 88% 76.56 0.0
06 22:35 S 7 16.09 Overcast OVC028 12 11 94% 76.56 0.0
06 22:15 SW 11 16.09 Overcast OVC027 12 11 94% 76.56 0.0
06 21:35 SW 11 16.09 Overcast OVC026 12 11 94% 76.58 0.0
06 21:15 S 9 16.09 Overcast OVC026 13 11 88% 76.56 0.0
06 20:55 SW 11 16.09 Overcast OVC026 13 11 88% 76.56 0.0
06 20:35 Calm 16.09 Overcast SCT029 OVC035 13 11 88% 76.56 0.0
06 20:15 SW 7 16.09 Overcast OVC036 13 11 88% 76.53 0.0
06 19:55 SW 7 16.09 Overcast BKN035 OVC043 13 11 88% 76.53 0.0
06 19:35 SW 7 16.09 Overcast OVC034 13 11 88% 76.53 0.0
06 18:55 Calm 16.09 Overcast OVC031 14 11 82% 76.53 0.0
06 18:35 Calm 16.09 Overcast BKN029 OVC045 14 11 82% 76.53 0.0
06 18:15 Calm 16.09 Overcast SCT026 BKN031 OVC045 14 11 82% 76.53 0.0
06 17:55 Vrbl 6 16.09 Overcast SCT027 OVC045 14 11 82% 76.53 0.0
06 17:35 W 7 16.09 Overcast BKN026 BKN030 OVC044 14 11 82% 76.53 0.0
06 17:15 W 7 16.09 Overcast BKN025 BKN030 OVC043 14 11 82% 76.53 0.0
06 16:55 SW 13 16.09 Overcast BKN025 BKN030 OVC044 15 12 82% 76.53 0.0
06 16:35 Vrbl 9 16.09 Overcast BKN023 OVC028 14 12 88% 76.53 0.0
06 16:15 SW 17 16.09 Overcast OVC025 14 11 82% 76.53 0.0
06 15:55 SW 15 16.09 Overcast OVC025 14 12 88% 76.53 0.0
06 15:35 SW 13 16.09 Overcast OVC022 14 12 88% 76.56 0.0
06 15:15 SW 11 G 20 16.09 Overcast BKN020 OVC024 14 12 88% 76.53 0.0
06 14:55 Vrbl 11 16.09 Overcast OVC019 13 11 88% 76.56 0.0
06 14:35 SW 9 16.09 Overcast OVC017 13 12 94% 76.56 0.0
06 14:15 Calm 16.09 Overcast OVC015 13 12 94% 76.56 0.0
06 13:55 Vrbl 6 16.09 Overcast BKN013 OVC020 13 11 88% 76.56 0.0
06 13:35 SW 9 16.09 Overcast BKN013 OVC021 12 12 100% 76.56 0.0
06 13:15 SW 17 16.09 Overcast BKN013 BKN018 OVC022 13 12 94% 76.56 0.0
06 12:55 Calm 16.09 Overcast BKN013 OVC018 13 12 94% 76.53 0.0
06 12:35 Calm 16.09 Overcast BKN014 OVC020 13 12 94% 76.53 0.0
06 12:15 Calm 16.09 Overcast OVC017 12 12 100% 76.53 0.0
06 11:55 Vrbl 11 16.09 Overcast OVC015 12 11 94% 76.53 0.0
06 11:35 SW 11 G 20 16.09 Overcast OVC015 13 12 94% 76.5 0.0
06 11:15 SW 11 16.09 Overcast OVC016 13 12 94% 76.5 0.0
06 10:55 SW 15 16.09 Overcast OVC016 14 12 88% 76.5 0.0
06 10:35 S 13 16.09 Overcast OVC015 13 12 94% 76.48 0.0
06 10:15 Calm 16.09 Overcast OVC016 13 12 94% 76.48 0.0
06 09:55 Calm 16.09 Overcast OVC018 13 13 100% 76.48 0.0
06 09:35 Calm 14.48 Overcast FEW006 FEW010 OVC019 12 12 100% 76.48 0.0
06 09:15 Calm 9.66 Fog/Mist BKN006 BKN010 OVC018 11 11 100% 76.5 0.0
06 08:55 Calm 4.83 Fog/Mist OVC006 11 11 100% 76.48 0.0
06 08:35 Calm 8.05 Fog/Mist OVC007 11 11 100% 76.48 0.0
06 08:15 Calm 12.87 Overcast OVC007 11 11 100% 76.45 0.0
06 07:55 Calm 14.48 Overcast OVC008 11 11 100% 76.45 0.0
06 07:35 Calm 16.09 Overcast OVC008 11 11 100% 76.45 0.0
06 07:15 Calm 16.09 Overcast OVC009 11 11 100% 76.45 0.0
06 06:55 Calm 16.09 Overcast OVC010 11 11 100% 76.43 0.0
Date Time (pdt) Wind (kph) Vis. (km) Weather Sky Cond. Air Dwpt Max. Min. Relative Humidity Wind Chill (°C) Heat Index (°C) altimeter (cm) sea level (mb) 1 hr 3 hr 6 hr
6 hour
Temperature (ºC) Pressure Precipitation (cm)